Overview Statistics Trail Chart Weather Telemetry Raw packets
 

This is the latest recevied weather packets stored in our database for station/object KI4NG. If no packets are shown the sender has not sent any weather packets the latest 10 day(s).

<< 81 82 83 84 85 86 87 >>
Time Temp. Humidity Pressure Rain* Wind** Luminosity Snow
1788027668 31.67° C 58% 1022.4 hPa 0 mm - 694 W/m² -
1788027367 31.11° C 64% 1022.4 hPa 0 mm - 861 W/m² -
1788027061 30.56° C 60% 1022.2 hPa 0 mm - 839 W/m² -
1788026755 30° C 58% 1022.5 hPa 0 mm - 821 W/m² -
1788026452 31.11° C 60% 1022.3 hPa 0 mm - 785 W/m² -
1788026146 30.56° C 56% 1022.4 hPa 0 mm - 774 W/m² -
1788025845 30.56° C 58% 1022.8 hPa 0 mm - 813 W/m² -
1788025545 30° C 57% 1022.8 hPa 0 mm - 748 W/m² -
1788025239 30.56° C 57% 1022.7 hPa 0 mm - 344 W/m² -
1788024934 28.89° C 58% 1022.8 hPa 0 mm - 838 W/m² -
1788024630 28.89° C 65% 1022.8 hPa 0 mm - 811 W/m² -
1788024325 28.89° C 62% 1022.8 hPa 0 mm - 184 W/m² -
1788024021 28.89° C 62% 1023 hPa 0 mm - 789 W/m² -
1788023721 28.89° C 61% 1023 hPa 0 mm - 189 W/m² -
1788023416 27.78° C 68% 1022.9 hPa 0 mm - 759 W/m² -
1788023116 27.78° C 66% 1023 hPa 0 mm - 178 W/m² -
1788022816 28.33° C 63% 1023.1 hPa 0 mm - 310 W/m² -
1788022513 28.89° C 63% 1023.3 hPa 0 mm - 159 W/m² -
1788022209 28.89° C 63% 1023.3 hPa 0 mm - 257 W/m² -
1788021907 29.44° C 60% 1023.5 hPa 0 mm - 144 W/m² -
1788021602 28.89° C 62% 1023.3 hPa 0 mm - 787 W/m² -
1788021299 29.44° C 64% 1023.2 hPa 0 mm - 772 W/m² -
1788020995 29.44° C 63% 1023.5 hPa 0 mm - 797 W/m² -
1788020689 28.89° C 64% 1023.4 hPa 0 mm - 812 W/m² -
1788020384 27.78° C 69% 1023.4 hPa 0 mm - 849 W/m² -

* Rain latest hour (hover to see other rain measurements)
** Current wind speed in m/s (hover to see current wind gust speed)